Location: New Frontier Mobile Home Park
(32.8448°N, 116.9675°W)
Time: 22:25:58
(UTC+00:00)

ERBS - Pass Details

Date: 14 July 2020
Orbit: 408 x 426 km, 57.0° (Epoch: 05 August)

Event Time Altitude Azimuth Distance (km) Brightness Sun altitude
Exits shadow 10:31:41 23° 97° (E) 918 4.2 -23.8°
Drops below altitude 10° 10:33:40 10° 64° (ENE) 1,471 5.9 -23.5°
Sets 10:35:56 0° 51° (NE) 2,334 7.4 -23.2°
